FW7514 Weather Reports


time (UTC)temp
C
wind
direction
speed
KPH
gust
KPH
rain 1hr
cm
rain 24hr
cm
rain mn
cm
humidity
%
barometer
mb
20260507015548 22 241 6.4 14.5 0.00 0.00 0.00 63 1017.7
20260507015045 22 245 4.8 16.1 0.00 0.00 0.00 63 1017.7
20260507014602 22 239 8.0 16.1 0.00 0.00 0.00 62 1017.7
20260507014045 22 261 8.0 16.1 0.00 0.00 0.00 62 1017.7
20260507013545 22 233 6.4 14.5 0.00 0.00 0.00 62 1017.6
20260507013056 22 293 8.0 14.5 0.00 0.00 0.00 61 1017.7
20260507012544 23 256 6.4 14.5 0.00 0.00 0.00 62 1017.8
20260507012045 23 243 6.4 16.1 0.00 0.00 0.00 60 1017.8
20260507011555 23 252 6.4 16.1 0.00 0.00 0.00 61 1017.7
20260507011044 23 260 8.0 16.1 0.00 0.00 0.00 60 1017.7
20260507010544 23 226 8.0 17.7 0.00 0.00 0.00 61 1017.6
20260507010052 23 253 6.4 17.7 0.00 0.00 0.00 60 1017.5
20260507005545 23 252 6.4 14.5 0.00 0.00 0.00 60 1017.6
20260507005048 23 324 3.2 14.5 0.00 0.00 0.00 61 1017.6
20260507004553 23 262 8.0 14.5 0.00 0.00 0.00 59 1017.7
20260507004048 23 233 6.4 14.5 0.00 0.00 0.00 60 1017.7
20260507003546 23 261 6.4 14.5 0.00 0.00 0.00 59 1017.7
20260507003054 23 271 6.4 14.5 0.00 0.00 0.00 60 1017.6
20260507002547 23 236 9.7 14.5 0.00 0.00 0.00 58 1017.6
20260507002046 23 307 6.4 11.3 0.00 0.00 0.00 57 1017.6
20260507001605 23 360 6.4 11.3 0.00 0.00 0.00 57 1017.7
20260507001047 23 248 4.8 12.9 0.00 0.00 0.00 57 1017.7
20260507000547 23 280 4.8 12.9 0.00 0.00 0.00 59 1017.7
20260507000054 23 266 4.8 11.3 0.00 0.00 0.00 58 1017.8
20260506235545 23 293 4.8 12.9 0.00 0.00 0.00 58 1017.8
20260506235050 23 288 6.4 14.5 0.00 0.00 0.00 58 1017.8
20260506234557 23 273 6.4 14.5 0.00 0.00 0.00 58 1017.9
20260506234047 23 253 4.8 14.5 0.00 0.00 0.00 58 1017.8
20260506233547 23 233 6.4 14.5 0.00 0.00 0.00 57 1017.9
20260506233108 24 276 4.8 17.7 0.00 0.00 0.00 58 1017.9
20260506232546 23 226 3.2 17.7 0.00 0.00 0.00 57 1017.9
20260506232048 24 255 4.8 17.7 0.00 0.00 0.00 56 1017.9
20260506231555 23 255 4.8 12.9 0.00 0.00 0.00 56 1018.0
20260506231045 24 236 4.8 12.9 0.00 0.00 0.00 57 1018.1
20260506230547 23 312 3.2 9.7 0.00 0.00 0.00 59 1018.0
20260506230057 23 307 3.2 14.5 0.00 0.00 0.00 60 1018.2
20260506225545 23 338 6.4 14.5 0.00 0.00 0.00 57 1018.3
20260506225045 23 307 3.2 12.9 0.00 0.00 0.00 56 1018.3
20260506224556 23 250 6.4 14.5 0.00 0.00 0.00 57 1018.3
20260506224044 23 287 4.8 14.5 0.00 0.00 0.00 58 1018.4
20260506223552 23 309 4.8 12.9 0.00 0.00 0.00 57 1018.6
20260506223055 23 44 4.8 12.9 0.00 0.00 0.00 58 1018.6
20260506222545 23 245 4.8 11.3 0.00 0.00 0.00 57 1018.6
20260506222047 23 269 4.8 11.3 0.00 0.00 0.00 58 1018.6
20260506221559 23 312 1.6 12.9 0.00 0.00 0.00 57 1018.6
20260506221044 23 84 4.8 14.5 0.00 0.00 0.00 57 1018.8
20260506220545 23 254 4.8 14.5 0.00 0.00 0.00 58 1018.8
20260506220052 23 268 4.8 11.3 0.00 0.00 0.00 60 1018.9
20260506215549 23 302 3.2 12.9 0.00 0.00 0.00 57 1019.0
20260506215045 23 271 3.2 12.9 0.00 0.00 0.00 56 1019.1
20260506214554 23 285 3.2 12.9 0.00 0.00 0.00 58 1018.9
20260506214045 23 258 3.2 12.9 0.00 0.00 0.00 57 1018.9
20260506213545 23 329 3.2 14.5 0.00 0.00 0.00 56 1019.1
20260506213110 23 328 3.2 14.5 0.00 0.00 0.00 56 1019.2
20260506212551 23 293 3.2 11.3 0.00 0.00 0.00 55 1019.4
20260506212048 23 45 4.8 11.3 0.00 0.00 0.00 55 1019.2
20260506211551 23 62 3.2 14.5 0.00 0.00 0.00 53 1019.3
20260506211045 23 311 3.2 14.5 0.00 0.00 0.00 54 1019.3
20260506210544 23 245 4.8 14.5 0.00 0.00 0.00 53 1019.4
20260506210055 23 25 3.2 11.3 0.00 0.00 0.00 54 1019.3
20260506205544 23 323 4.8 11.3 0.00 0.00 0.00 54 1019.3
20260506205044 22 105 1.6 9.7 0.00 0.00 0.00 55 1019.3
20260506204553 22 127 3.2 11.3 0.00 0.00 0.00 56 1019.4
20260506204044 22 44 4.8 11.3 0.00 0.00 0.00 56 1019.4
20260506203545 22 293 3.2 9.7 0.00 0.00 0.00 56 1019.6
20260506203050 22 319 1.6 9.7 0.00 0.00 0.00 57 1019.5
20260506202545 22 263 4.8 9.7 0.00 0.00 0.00 57 1019.6
20260506202048 21 212 3.2 9.7 0.00 0.00 0.00 57 1019.7
20260506201551 21 20 4.8 9.7 0.00 0.00 0.00 59 1019.9
20260506201044 21 288 3.2 8.0 0.00 0.00 0.00 62 1019.9
20260506200545 21 330 1.6 11.3 0.00 0.00 0.00 62 1020.0
20260506200048 21 51 4.8 11.3 0.00 0.00 0.00 62 1020.2
20260506195545 21 49 3.2 14.5 0.00 0.00 0.00 63 1020.2
20260506195048 21 292 3.2 14.5 0.00 0.00 0.00 63 1020.0
20260506194552 20 288 6.4 14.5 0.00 0.00 0.00 63 1020.3
20260506194048 21 309 6.4 11.3 0.00 0.00 0.00 63 1020.2
20260506193544 21 41 3.2 11.3 0.00 0.00 0.00 63 1020.2
20260506193050 21 324 4.8 11.3 0.00 0.00 0.00 62 1020.5
20260506192544 21 31 4.8 11.3 0.00 0.00 0.00 62 1020.4
20260506192045 21 264 1.6 9.7 0.00 0.00 0.00 62 1020.3
20260506191552 21 212 4.8 9.7 0.00 0.00 0.00 60 1020.5
20260506191046 21 205 1.6 8.0 0.00 0.00 0.00 63 1020.4
20260506190544 20 118 3.2 11.3 0.00 0.00 0.00 63 1020.4
20260506190051 20 276 3.2 11.3 0.00 0.00 0.00 64 1020.3
20260506185545 21 302 6.4 11.3 0.00 0.00 0.00 64 1020.3
20260506185045 21 278 1.6 8.0 0.00 0.00 0.00 64 1020.3
20260506184549 21 57 1.6 8.0 0.00 0.00 0.00 63 1020.4
20260506184045 21 65 4.8 8.0 0.00 0.00 0.00 64 1020.5
20260506183549 20 28 1.6 9.7 0.00 0.00 0.00 65 1020.5
20260506183051 20 206 4.8 11.3 0.00 0.00 0.00 64 1020.6
20260506182544 20 241 1.6 11.3 0.00 0.00 0.00 65 1020.6
20260506182120 20 291 3.2 11.3 0.00 0.00 0.00 64 1020.7
20260506181551 20 324 1.6 11.3 0.00 0.00 0.00 66 1020.5
20260506181045 19 291 4.8 11.3 0.00 0.00 0.00 66 1020.6
20260506180548 19 198 1.6 9.7 0.00 0.00 0.00 66 1020.6
20260506175545 20 229 1.6 6.4 0.00 0.00 0.00 66 1020.5
20260506175044 20 130 3.2 6.4 0.00 0.00 0.00 66 1020.5
20260506174553 18 129 1.6 8.0 0.00 0.00 0.00 68 1020.6
20260506174044 18 231 4.8 8.0 0.00 0.00 0.00 68 1020.7
20260506173545 18 228 4.8 8.0 0.00 0.00 0.00 68 1020.7
20260506173057 19 224 1.6 6.4 0.00 0.00 0.00 67 1020.6
20260506172546 19 136 3.2 6.4 0.00 0.00 0.00 67 1020.8
20260506172048 19 114 1.6 8.0 0.00 0.00 0.00 67 1020.8
20260506171558 18 191 3.2 8.0 0.00 0.00 0.00 68 1020.8
20260506171047 18 153 1.6 6.4 0.00 0.00 0.00 67 1020.8
20260506170548 18 112 3.2 6.4 0.00 0.00 0.00 69 1020.9
20260506170103 17 282 3.2 6.4 0.00 0.00 0.00 72 1020.8
20260506165545 17 167 3.2 8.0 0.00 0.00 0.00 70 1020.8
20260506165046 17 136 1.6 8.0 0.00 0.00 0.00 73 1020.8
20260506164553 17 0 3.2 9.7 0.00 0.00 0.00 70 1020.7
20260506164049 17 105 1.6 9.7 0.00 0.00 0.00 74 1020.8
20260506163547 16 276 3.2 9.7 0.00 0.00 0.00 72 1020.7
20260506163114 16 110 3.2 8.0 0.00 0.00 0.00 74 1020.8
20260506162544 16 210 1.6 8.0 0.00 0.00 0.00 74 1020.8
20260506162046 16 278 3.2 8.0 0.00 0.00 0.00 75 1020.7
20260506161551 16 259 3.2 8.0 0.00 0.00 0.00 75 1020.8
20260506161044 15 272 3.2 8.0 0.00 0.00 0.00 77 1020.8
20260506160544 15 243 1.6 8.0 0.00 0.00 0.00 77 1020.9
20260506160049 15 231 3.2 9.7 0.00 0.00 0.00 77 1020.9
20260506155552 15 240 3.2 9.7 0.00 0.00 0.00 77 1020.9
20260506155045 15 228 3.2 9.7 0.00 0.00 0.00 77 1020.8
20260506154608 15 233 1.6 8.0 0.00 0.00 0.00 76 1020.9
20260506154046 15 117 3.2 8.0 0.00 0.00 0.00 77 1020.9
20260506153544 15 158 3.2 6.4 0.00 0.00 0.00 77 1020.9
20260506153058 15 233 3.2 6.4 0.00 0.00 0.00 77 1021.0
20260506152545 15 236 1.6 11.3 0.00 0.00 0.00 76 1021.0
20260506152048 15 155 3.2 11.3 0.00 0.00 0.00 76 1020.9
20260506151555 15 192 3.2 9.7 0.00 0.00 0.00 76 1020.9
20260506151045 15 174 3.2 9.7 0.00 0.00 0.00 78 1020.9
20260506150545 15 129 1.6 9.7 0.00 0.00 0.00 78 1020.9
20260506150053 14 233 1.6 8.0 0.00 0.00 0.00 79 1020.9
20260506145545 14 146 3.2 8.0 0.00 0.00 0.00 79 1020.8
20260506145044 14 155 3.2 6.4 0.00 0.00 0.00 80 1020.9
20260506144553 13 136 1.6 6.4 0.00 0.00 0.00 82 1020.8
20260506144044 13 176 1.6 4.8 0.00 0.00 0.00 83 1020.9
20260506143545 13 134 1.6 4.8 0.00 0.00 0.00 83 1020.8
20260506143105 13 137 1.6 4.8 0.00 0.00 0.00 83 1020.7
20260506142546 12 128 0.0 4.8 0.00 0.00 0.00 84 1020.7
20260506142048 12 152 1.6 4.8 0.00 0.00 0.00 84 1020.6
20260506141552 12 149 0.0 4.8 0.00 0.00 0.00 85 1020.6
20260506141048 12 168 1.6 4.8 0.00 0.00 0.00 85 1020.6
20260506140548 12 156 1.6 3.2 0.00 0.00 0.00 85 1020.4
20260506140054 12 153 0.0 3.2 0.00 0.00 0.00 85 1020.3
20260506135547 12 147 0.0 3.2 0.00 0.00 0.00 86 1020.3
20260506135047 12 143 1.6 3.2 0.00 0.00 0.00 86 1020.3
20260506134552 12 0 0.0 0.0 0.00 0.00 0.00 86 1020.2
20260506134044 12 0 0.0 0.0 0.00 0.00 0.00 86 1020.2
20260506133547 12 0 0.0 0.0 0.00 0.00 0.00 86 1020.2
20260506133055 12 0 0.0 0.0 0.00 0.00 0.00 86 1020.3
20260506132547 12 0 0.0 0.0 0.00 0.00 0.00 86 1020.2
20260506132047 12 0 0.0 0.0 0.00 0.00 0.00 86 1020.2
20260506131555 12 0 0.0 0.0 0.00 0.00 0.00 86 1020.1
20260506131047 12 0 0.0 0.0 0.00 0.00 0.00 85 1020.0
20260506130548 12 0 0.0 0.0 0.00 0.00 0.00 85 1020.0
20260506130052 12 0 0.0 0.0 0.00 0.00 0.00 85 1020.0
20260506125549 12 0 0.0 0.0 0.00 0.00 0.00 85 1020.1
20260506125050 12 0 0.0 0.0 0.00 0.00 0.00 85 1020.0
20260506124548 12 0 0.0 0.0 0.00 0.00 0.00 84 1019.8
20260506124047 12 0 0.0 0.0 0.00 0.00 0.00 84 1019.9
20260506123545 12 0 0.0 1.6 0.00 0.00 0.00 84 1019.9
20260506123051 12 0 0.0 1.6 0.00 0.00 0.00 84 1020.0
20260506122547 12 0 0.0 3.2 0.00 0.00 0.00 84 1019.9
20260506122046 12 148 0.0 3.2 0.00 0.00 0.00 84 1020.0
20260506121552 12 195 1.6 4.8 0.00 0.00 0.00 84 1019.9
20260506121048 12 136 1.6 4.8 0.00 0.00 0.00 84 1019.8
20260506120548 12 137 0.0 3.2 0.00 0.00 0.00 84 1020.0
20260506120058 12 155 0.0 3.2 0.00 0.00 0.00 84 1019.9
20260506115548 12 150 0.0 3.2 0.00 0.00 0.00 84 1019.8
20260506115047 12 172 0.0 3.2 0.00 0.00 0.00 84 1019.8
20260506114604 12 135 0.0 3.2 0.00 0.00 0.00 84 1019.8
20260506114051 12 153 1.6 3.2 0.00 0.00 0.00 84 1019.7
20260506113549 12 162 0.0 1.6 0.00 0.00 0.00 84 1019.7
20260506113054 12 233 0.0 1.6 0.00 0.00 0.00 84 1019.8
20260506112547 12 233 0.0 1.6 0.00 0.00 0.00 85 1019.8
20260506112048 12 233 0.0 1.6 0.00 0.00 0.00 85 1019.6
20260506111553 12 193 0.0 1.6 0.00 0.00 0.00 85 1019.6
20260506111045 12 0 0.0 1.6 0.00 0.00 0.00 85 1019.7
20260506110545 12 141 0.0 1.6 0.00 0.00 0.00 85 1019.5
20260506110059 12 0 0.0 1.6 0.00 0.00 0.00 85 1019.6
20260506105545 12 149 0.0 1.6 0.00 0.00 0.00 85 1019.4
20260506105046 12 150 0.0 1.6 0.00 0.00 0.00 85 1019.5
20260506104555 12 158 0.0 3.2 0.00 0.00 0.00 85 1019.4
20260506104044 12 181 1.6 3.2 0.00 0.00 0.00 85 1019.5
20260506103547 12 146 0.0 3.2 0.00 0.00 0.00 85 1019.5
20260506103051 12 200 0.0 3.2 0.00 0.00 0.00 85 1019.4
20260506102545 12 172 1.6 4.8 0.00 0.00 0.00 85 1019.3
20260506102045 12 165 0.0 4.8 0.00 0.00 0.00 85 1019.4
20260506101604 12 158 1.6 4.8 0.00 0.00 0.00 85 1019.4
20260506101047 12 165 0.0 4.8 0.00 0.00 0.00 85 1019.4
20260506100545 12 153 1.6 4.8 0.00 0.00 0.00 85 1019.3
20260506100057 12 143 1.6 4.8 0.00 0.00 0.00 85 1019.2
20260506095547 12 163 1.6 4.8 0.00 0.00 0.00 85 1019.3
20260506095045 12 192 1.6 3.2 0.00 0.00 0.00 85 1019.3
20260506094621 12 188 0.0 3.2 0.00 0.00 0.00 85 1019.3
20260506094044 12 155 0.0 3.2 0.00 0.00 0.00 86 1019.1
20260506093546 12 207 0.0 4.8 0.00 0.00 0.00 86 1019.2
20260506093056 12 148 1.6 4.8 0.00 0.00 0.00 86 1019.1
20260506092545 12 148 0.0 3.2 0.00 0.00 0.00 86 1019.2
20260506092045 12 194 0.0 3.2 0.00 0.00 0.00 86 1019.2
20260506091555 12 233 1.6 3.2 0.00 0.00 0.00 86 1019.2
20260506091045 12 233 0.0 3.2 0.00 0.00 0.00 86 1019.2
20260506090544 12 204 0.0 3.2 0.00 0.00 0.00 86 1019.3
20260506090059 12 143 1.6 3.2 0.00 0.00 0.00 86 1019.3
20260506085545 12 150 0.0 3.2 0.00 0.13 0.00 86 1019.2
20260506085048 12 176 0.0 3.2 0.00 0.13 0.00 86 1019.3
20260506084603 12 201 1.6 3.2 0.00 0.13 0.00 85 1019.1
20260506084048 12 170 0.0 3.2 0.00 0.13 0.00 85 1019.4
20260506083546 12 253 0.0 3.2 0.00 0.13 0.00 85 1019.3
20260506083104 12 241 1.6 4.8 0.00 0.13 0.00 86 1019.2
20260506082548 12 139 1.6 4.8 0.00 0.13 0.00 86 1019.1
20260506082045 12 241 1.6 4.8 0.00 0.13 0.00 86 1019.2
20260506081559 12 0 1.6 4.8 0.00 0.13 0.00 86 1019.2
20260506081046 11 146 1.6 6.4 0.00 0.13 0.00 86 1019.1
20260506080548 11 122 1.6 6.4 0.00 0.13 0.00 86 1019.2
20260506073103 11 159 1.6 6.4 0.00 0.25 0.00 86 1018.9
20260506072549 11 143 3.2 8.0 0.00 0.25 0.00 86 1018.9
20260506072046 11 154 3.2 8.0 0.00 0.25 0.00 85 1018.9
20260506071557 11 150 1.6 6.4 0.00 0.25 0.00 85 1018.8
20260506071045 12 155 1.6 6.4 0.00 0.25 0.00 85 1018.7
20260506070545 12 139 1.6 6.4 0.00 0.25 0.00 85 1018.7
20260506070104 12 150 3.2 8.0 0.00 0.25 0.00 85 1018.7
20260506062045 12 212 1.6 9.7 0.00 0.38 0.25 84 1018.4
20260506061558 12 174 3.2 8.0 0.00 0.38 0.25 84 1018.3
20260506061045 12 132 1.6 9.7 0.00 0.38 0.25 84 1018.4
20260506060545 12 181 3.2 9.7 0.00 0.38 0.25 83 1018.2
20260506051047 13 167 4.8 12.9 0.00 0.46 0.25 80 1017.9
20260506050547 13 225 3.2 12.9 0.00 0.46 0.25 80 1017.8
20260506045049 13 142 3.2 8.0 0.00 0.58 0.25 79 1017.8
20260506044553 13 242 3.2 8.0 0.00 0.58 0.25 79 1017.7
20260506044047 13 231 1.6 11.3 0.00 0.58 0.25 79 1017.7
20260506043548 13 244 1.6 11.3 0.00 0.58 0.25 79 1017.6
20260506043055 13 248 4.8 12.9 0.00 0.58 0.25 78 1017.6
20260506042548 13 155 3.2 12.9 0.00 0.58 0.25 78 1017.5
20260506042046 13 234 4.8 11.3 0.00 0.58 0.25 78 1017.3
20260506041554 13 226 4.8 11.3 0.00 0.58 0.25 78 1017.3
20260506041048 13 223 3.2 11.3 0.00 0.58 0.25 78 1017.3
20260506040549 14 229 3.2 11.3 0.00 0.58 0.25 78 1017.2
20260506040100 14 241 3.2 11.3 0.00 0.58 0.25 78 1017.2
20260506035547 14 216 3.2 11.3 0.00 0.58 0.25 79 1017.1
20260506035047 14 282 3.2 11.3 0.00 0.58 0.25 78 1017.1
20260506034605 14 255 3.2 11.3 0.00 0.58 0.25 78 1017.1
20260506034047 14 250 4.8 14.5 0.00 0.58 0.25 78 1017.0
20260506033547 14 237 3.2 14.5 0.00 0.58 0.25 78 1016.9
20260506033052 14 264 4.8 9.7 0.00 0.58 0.25 78 1016.8
20260506032549 14 233 1.6 8.0 0.00 0.58 0.25 77 1016.7
20260506032048 14 234 3.2 9.7 0.00 0.58 0.25 77 1016.6
20260506031600 14 142 3.2 9.7 0.00 0.58 0.25 77 1016.5
20260506031050 15 150 3.2 8.0 0.00 0.58 0.25 76 1016.5
20260506030549 15 210 3.2 9.7 0.00 0.58 0.25 76 1016.4
20260506030048 15 134 4.8 9.7 0.00 0.58 0.25 76 1016.4
20260506025548 15 267 3.2 11.3 0.00 0.58 0.25 76 1016.4
20260506025048 15 269 3.2 12.9 0.00 0.58 0.25 75 1016.4
20260506024552 15 245 1.6 14.5 0.00 0.58 0.25 75 1016.5
20260506024048 15 238 3.2 14.5 0.00 0.58 0.25 75 1016.4
20260506023546 15 247 4.8 11.3 0.00 0.58 0.25 75 1016.3
20260506023059 15 165 1.6 12.9 0.00 0.58 0.25 75 1016.1
20260506022545 15 235 4.8 12.9 0.00 0.58 0.25 75 1016.2
20260506022047 15 269 3.2 12.9 0.00 0.58 0.25 76 1016.1
20260506021557 15 235 4.8 12.9 0.00 0.58 0.25 75 1016.2
20260506021047 15 203 4.8 11.3 0.00 0.58 0.25 75 1016.2
20260506020546 15 202 4.8 12.9 0.00 0.58 0.25 75 1016.2
20260506020101 15 274 3.2 17.7 0.00 0.58 0.25 75 1016.1